FW8892 Weather Reports


Display with metric or nautical units.
time (UTC)temp
F
wind
direction
speed
MPH
gust
MPH
rain 1hr
in
rain 24hr
in
rain mn
in
humidity
%
barometer
mb
20260902030045 76 0 0.0 0.0 0.00 0.00 0.00 87 1018.2
20260902025530 76 0 0.0 0.0 0.00 0.00 0.00 86 1018.2
20260902025029 76 0 0.0 0.0 0.00 0.00 0.00 87 1018.2
20260902024555 77 0 0.0 0.0 0.00 0.00 0.00 87 1018.3
20260902024031 77 0 0.0 0.0 0.00 0.00 0.00 85 1018.1
20260902023529 77 0 0.0 0.0 0.00 0.00 0.00 84 1018.2
20260902023051 77 0 0.0 0.0 0.00 0.00 0.00 84 1018.1
20260902022527 77 0 0.0 0.0 0.00 0.00 0.00 84 1018.1
20260902022030 77 0 0.0 0.0 0.00 0.00 0.00 84 1018.1
20260902021551 77 0 0.0 0.0 0.00 0.00 0.00 83 1018.1
20260902021029 78 0 0.0 0.0 0.00 0.00 0.00 82 1018.1
20260902020528 78 0 0.0 0.0 0.00 0.00 0.00 82 1018.0
20260902020054 78 0 0.0 0.0 0.00 0.00 0.00 82 1017.9
20260902015530 78 0 0.0 0.0 0.00 0.00 0.00 81 1017.8
20260902015029 79 0 0.0 0.0 0.00 0.00 0.00 81 1017.9
20260902014557 79 0 0.0 0.0 0.00 0.00 0.00 81 1017.8
20260902014030 79 0 0.0 0.0 0.00 0.00 0.00 81 1017.9
20260902013529 79 0 0.0 0.0 0.00 0.00 0.00 81 1017.7
20260902013051 80 0 0.0 0.0 0.00 0.00 0.00 81 1017.8
20260902012529 80 0 0.0 0.0 0.00 0.00 0.00 80 1017.7
20260902012032 80 0 0.0 0.0 0.00 0.00 0.00 79 1017.7
20260902011556 81 0 0.0 0.0 0.00 0.00 0.00 79 1017.6
20260902011028 81 0 0.0 0.0 0.00 0.00 0.00 78 1017.6
20260902010529 81 0 0.0 0.0 0.00 0.00 0.00 78 1017.4
20260902010109 82 0 0.0 0.0 0.00 0.00 0.00 76 1017.5
20260902005529 82 0 0.0 0.0 0.00 0.00 0.00 76 1017.5
20260902005027 82 0 0.0 0.0 0.00 0.00 0.00 75 1017.4
20260902004601 83 0 0.0 0.0 0.00 0.00 0.00 74 1017.5
20260902004028 83 0 0.0 0.0 0.00 0.00 0.00 73 1017.5
20260902003530 84 0 0.0 0.0 0.00 0.00 0.00 72 1017.5
20260902003051 85 0 0.0 0.0 0.00 0.00 0.00 71 1017.5
20260902002528 85 0 0.0 0.0 0.00 0.00 0.00 71 1017.5
20260902002028 86 0 0.0 0.0 0.00 0.00 0.00 70 1017.5
20260902001556 86 0 0.0 0.0 0.00 0.00 0.00 69 1017.6
20260902001029 87 0 0.0 0.0 0.00 0.00 0.00 67 1017.5
20260902000527 88 0 0.0 0.0 0.00 0.00 0.00 67 1017.6
20260902000055 88 0 0.0 0.0 0.00 0.00 0.00 65 1017.4
20260901235529 89 0 0.0 0.0 0.00 0.00 0.00 64 1017.4
20260901235027 89 0 0.0 0.0 0.00 0.00 0.00 62 1017.4
20260901234555 90 0 0.0 1.0 0.00 0.00 0.00 61 1017.5
20260901234027 90 0 0.0 1.0 0.00 0.00 0.00 59 1017.4
20260901233528 90 0 0.0 1.0 0.00 0.00 0.00 57 1017.5
20260901233101 91 0 0.0 1.0 0.00 0.00 0.00 57 1017.5
20260901232531 91 0 0.0 1.0 0.00 0.00 0.00 57 1017.5
20260901232032 92 0 0.0 3.0 0.00 0.00 0.00 56 1017.7
20260901231554 92 0 0.0 3.0 0.00 0.00 0.00 53 1017.5
20260901231029 92 0 0.0 4.0 0.00 0.00 0.00 52 1017.7
20260901230528 92 0 0.0 4.0 0.00 0.00 0.00 53 1017.5
20260901230058 92 215 0.0 3.0 0.00 0.00 0.00 52 1017.6
20260901225530 92 0 0.0 2.0 0.00 0.00 0.00 53 1017.5
20260901225027 92 0 0.0 2.0 0.00 0.00 0.00 51 1017.4
20260901224552 93 0 0.0 3.0 0.00 0.00 0.00 50 1017.6
20260901224029 93 118 0.0 3.0 0.00 0.00 0.00 49 1017.5
20260901223529 93 165 0.0 3.0 0.00 0.00 0.00 50 1017.5
20260901223058 93 0 0.0 3.0 0.00 0.00 0.00 49 1017.5
20260901222527 93 119 0.0 3.0 0.00 0.00 0.00 49 1017.5
20260901222028 94 216 1.0 4.0 0.00 0.00 0.00 49 1017.5
20260901221617 94 0 0.0 5.0 0.00 0.00 0.00 49 1017.5
20260901221029 94 195 1.0 5.0 0.00 0.00 0.00 50 1017.5
20260901220533 94 0 0.0 4.0 0.00 0.00 0.00 51 1017.6
20260901220058 94 138 1.0 6.0 0.00 0.00 0.00 50 1017.5
20260901215528 94 190 1.0 6.0 0.00 0.00 0.00 51 1017.5
20260901215031 95 169 0.0 6.0 0.00 0.00 0.00 51 1017.5
20260901214548 95 0 1.0 6.0 0.00 0.00 0.00 49 1017.4
20260901214028 95 111 2.0 6.0 0.00 0.00 0.00 49 1017.4
20260901213529 96 59 1.0 5.0 0.00 0.00 0.00 49 1017.5
20260901213100 96 187 2.0 5.0 0.00 0.00 0.00 49 1017.5
20260901212529 97 139 0.0 4.0 0.00 0.00 0.00 48 1017.5
20260901212029 97 0 0.0 4.0 0.00 0.00 0.00 49 1017.5
20260901211547 97 113 0.0 6.0 0.00 0.00 0.00 49 1017.5
20260901211028 98 184 2.0 6.0 0.00 0.00 0.00 48 1017.5
20260901210530 98 150 1.0 4.0 0.00 0.00 0.00 48 1017.5
20260901210055 98 0 0.0 4.0 0.00 0.00 0.00 49 1017.7
20260901205529 98 82 0.0 2.0 0.00 0.00 0.00 49 1017.7
20260901205031 98 0 0.0 3.0 0.00 0.00 0.00 49 1017.7
20260901204557 98 0 0.0 3.0 0.00 0.00 0.00 48 1017.8
20260901204030 98 0 0.0 3.0 0.00 0.00 0.00 50 1017.8
20260901203530 98 202 0.0 4.0 0.00 0.00 0.00 49 1017.8
20260901203050 98 0 2.0 4.0 0.00 0.00 0.00 48 1017.9
20260901202529 97 0 0.0 4.0 0.00 0.00 0.00 51 1018.0
20260901202030 97 227 0.0 4.0 0.00 0.00 0.00 53 1017.9
20260901201556 96 174 1.0 4.0 0.00 0.00 0.00 51 1018.1
20260901201033 96 183 0.0 3.0 0.00 0.00 0.00 52 1018.1
20260901200529 96 0 0.0 4.0 0.00 0.00 0.00 50 1018.2
20260901200105 95 0 0.0 4.0 0.00 0.00 0.00 53 1018.3
20260901195529 95 123 1.0 5.0 0.00 0.00 0.00 52 1018.3
20260901195033 95 140 1.0 5.0 0.00 0.00 0.00 53 1018.4
20260901194559 96 0 1.0 6.0 0.00 0.00 0.00 52 1018.4
20260901194030 96 147 1.0 6.0 0.00 0.00 0.00 52 1018.5
20260901193530 96 134 1.0 5.0 0.00 0.00 0.00 51 1018.5
20260901193100 96 201 2.0 6.0 0.00 0.00 0.00 51 1018.6
20260901192527 96 0 0.0 6.0 0.00 0.00 0.00 53 1018.6
20260901192030 95 0 0.0 2.0 0.00 0.00 0.00 57 1018.8
20260901191557 95 0 0.0 2.0 0.00 0.00 0.00 56 1018.7
20260901191034 94 0 0.0 1.0 0.00 0.00 0.00 57 1018.8
20260901190531 94 0 0.0 2.0 0.00 0.00 0.00 57 1018.8
20260901190116 94 0 0.0 2.0 0.00 0.00 0.00 55 1018.8
20260901185531 94 0 0.0 2.0 0.00 0.00 0.00 54 1018.9
20260901185030 94 0 0.0 4.0 0.00 0.00 0.00 56 1019.1
20260901184604 95 0 0.0 4.0 0.00 0.00 0.00 55 1019.0
20260901184030 95 0 0.0 4.0 0.00 0.00 0.00 54 1019.1
20260901183531 96 0 0.0 4.0 0.00 0.00 0.00 55 1019.0
20260901183049 96 0 0.0 4.0 0.00 0.00 0.00 54 1019.1
20260901182528 97 0 0.0 4.0 0.00 0.00 0.00 55 1019.1
20260901182032 97 0 0.0 3.0 0.00 0.00 0.00 52 1019.2
20260901181552 97 46 0.0 3.0 0.00 0.00 0.00 52 1019.1
20260901181030 97 144 1.0 3.0 0.00 0.00 0.00 52 1019.3
20260901180531 97 0 0.0 3.0 0.00 0.00 0.00 51 1019.4
20260901175529 96 0 0.0 4.0 0.00 0.00 0.00 52 1019.5
20260901175030 96 0 0.0 2.0 0.00 0.00 0.00 54 1019.4
20260901174604 96 0 0.0 4.0 0.00 0.00 0.00 52 1019.6
20260901174033 96 108 0.0 4.0 0.00 0.00 0.00 53 1019.6
20260901173528 95 204 0.0 4.0 0.00 0.00 0.00 56 1019.6
20260901173053 95 186 0.0 4.0 0.00 0.00 0.00 56 1019.7
20260901172530 96 0 1.0 4.0 0.00 0.00 0.00 53 1019.7
20260901172030 96 199 0.0 7.0 0.00 0.00 0.00 54 1019.8
20260901171551 97 138 0.0 7.0 0.00 0.00 0.00 51 1019.9
20260901171029 97 155 0.0 3.0 0.00 0.00 0.00 52 1019.9
20260901170530 97 0 0.0 4.0 0.00 0.00 0.00 52 1020.0
20260901170157 97 163 0.0 6.0 0.00 0.00 0.00 56 1020.0
20260901165530 97 229 2.0 6.0 0.00 0.00 0.00 53 1020.1
20260901165030 97 160 1.0 4.0 0.00 0.00 0.00 51 1020.1
20260901164554 96 0 0.0 3.0 0.00 0.00 0.00 54 1020.2
20260901164029 96 0 0.0 9.0 0.00 0.00 0.00 56 1020.2
20260901163531 96 237 1.0 9.0 0.00 0.00 0.00 55 1020.2
20260901163102 96 222 1.0 6.0 0.00 0.00 0.00 58 1020.2
20260901162528 96 201 0.0 5.0 0.00 0.00 0.00 57 1020.2
20260901162030 96 223 1.0 5.0 0.00 0.00 0.00 55 1020.2
20260901161604 96 0 0.0 4.0 0.00 0.00 0.00 57 1020.2
20260901161029 96 276 0.0 4.0 0.00 0.00 0.00 56 1020.2
20260901160529 95 196 0.0 4.0 0.00 0.00 0.00 58 1020.3
20260901160058 95 278 1.0 5.0 0.00 0.00 0.00 56 1020.3
20260901155528 94 205 1.0 5.0 0.00 0.00 0.00 58 1020.3
20260901155028 94 269 1.0 5.0 0.00 0.00 0.00 61 1020.4
20260901154605 94 144 0.0 5.0 0.00 0.00 0.00 61 1020.5
20260901154028 94 0 0.0 4.0 0.00 0.00 0.00 60 1020.4
20260901153531 94 221 1.0 5.0 0.00 0.00 0.00 59 1020.5
20260901153121 95 220 0.0 5.0 0.00 0.00 0.00 60 1020.4
20260901152529 95 184 1.0 5.0 0.00 0.00 0.00 58 1020.4
20260901152030 95 225 0.0 5.0 0.00 0.00 0.00 64 1020.4
20260901151547 94 296 0.0 5.0 0.00 0.00 0.00 63 1020.5
20260901151029 94 196 0.0 5.0 0.00 0.00 0.00 62 1020.5
20260901150531 93 0 0.0 5.0 0.00 0.00 0.00 64 1020.5
20260901150058 93 245 0.0 4.0 0.00 0.00 0.00 65 1020.4
20260901145529 92 278 0.0 5.0 0.00 0.00 0.00 64 1020.5
20260901145032 92 197 2.0 5.0 0.00 0.00 0.00 64 1020.5
20260901144600 91 209 1.0 4.0 0.00 0.00 0.00 65 1020.4
20260901144029 91 0 1.0 6.0 0.00 0.00 0.00 64 1020.5
20260901143530 91 192 1.0 6.0 0.00 0.00 0.00 65 1020.6
20260901143054 91 204 1.0 5.0 0.00 0.00 0.00 68 1020.5
20260901142528 91 216 2.0 5.0 0.00 0.00 0.00 65 1020.6
20260901142030 90 223 2.0 6.0 0.00 0.00 0.00 67 1020.5
20260901141555 90 175 1.0 6.0 0.00 0.00 0.00 67 1020.6
20260901141031 90 211 0.0 5.0 0.00 0.00 0.00 67 1020.6
20260901140530 89 0 1.0 5.0 0.00 0.00 0.00 69 1020.5
20260901140058 89 222 1.0 5.0 0.00 0.00 0.00 70 1020.5
20260901135529 88 0 0.0 4.0 0.00 0.00 0.00 70 1020.4
20260901135034 88 0 0.0 5.0 0.00 0.00 0.00 70 1020.4
20260901134556 87 203 1.0 5.0 0.00 0.00 0.00 71 1020.3
20260901134030 87 186 1.0 5.0 0.00 0.00 0.00 73 1020.5
20260901133529 86 172 0.0 3.0 0.00 0.00 0.00 76 1020.5
20260901133049 86 0 0.0 2.0 0.00 0.00 0.00 76 1020.5
20260901132530 85 139 0.0 3.0 0.00 0.00 0.00 78 1020.5
20260901132030 84 0 0.0 3.0 0.00 0.00 0.00 78 1020.5
20260901131545 83 154 0.0 3.0 0.00 0.00 0.00 80 1020.3
20260901131030 83 164 0.0 3.0 0.00 0.00 0.00 81 1020.3
20260901130531 82 0 0.0 2.0 0.00 0.00 0.00 83 1020.4
20260901130101 81 0 0.0 0.0 0.00 0.00 0.00 84 1020.3
20260901125530 79 0 0.0 0.0 0.00 0.00 0.00 86 1020.3
20260901125031 78 0 0.0 0.0 0.00 0.00 0.00 88 1020.2
20260901124552 77 0 0.0 0.0 0.00 0.00 0.00 89 1020.3
20260901124028 76 0 0.0 0.0 0.00 0.00 0.00 91 1020.2
20260901123530 75 0 0.0 0.0 0.00 0.00 0.00 93 1020.1
20260901123049 74 0 0.0 0.0 0.00 0.00 0.00 96 1020.1
20260901122531 74 0 0.0 0.0 0.00 0.00 0.00 98 1020.0
20260901122028 73 0 0.0 0.0 0.00 0.00 0.00 99 1020.0
20260901121559 72 0 0.0 0.0 0.00 0.00 0.00 99 1020.0
20260901121030 72 0 0.0 0.0 0.00 0.00 0.00 99 1019.8
20260901120528 71 0 0.0 0.0 0.00 0.00 0.00 98 1019.8
20260901120057 70 0 0.0 0.0 0.00 0.00 0.00 98 1019.8
20260901115528 70 0 0.0 0.0 0.00 0.00 0.00 97 1019.8
20260901115029 70 0 0.0 0.0 0.00 0.00 0.00 97 1019.8
20260901114558 70 0 0.0 0.0 0.00 0.00 0.00 97 1019.8
20260901114028 70 0 0.0 0.0 0.00 0.00 0.00 97 1019.7
20260901113528 70 0 0.0 0.0 0.00 0.00 0.00 97 1019.6
20260901113059 70 0 0.0 0.0 0.00 0.00 0.00 97 1019.5
20260901112529 70 0 0.0 0.0 0.00 0.00 0.00 97 1019.4
20260901112030 70 0 0.0 0.0 0.00 0.00 0.00 97 1019.4
20260901111549 70 0 0.0 0.0 0.00 0.00 0.00 97 1019.3
20260901111028 70 0 0.0 0.0 0.00 0.00 0.00 97 1019.2
20260901110529 70 0 0.0 0.0 0.00 0.00 0.00 97 1019.1
20260901110048 70 0 0.0 0.0 0.00 0.00 0.00 97 1019.1
20260901105529 70 0 0.0 0.0 0.00 0.00 0.00 96 1019.1
20260901105028 70 0 0.0 0.0 0.00 0.00 0.00 96 1018.9
20260901104545 70 0 0.0 0.0 0.00 0.00 0.00 96 1019.0
20260901104030 70 0 0.0 0.0 0.00 0.00 0.00 96 1019.1
20260901103529 70 0 0.0 0.0 0.00 0.00 0.00 97 1019.1
20260901103055 70 0 0.0 0.0 0.00 0.00 0.00 97 1019.2
20260901102528 70 0 0.0 0.0 0.00 0.00 0.00 97 1019.1
20260901102030 70 0 0.0 0.0 0.00 0.00 0.00 96 1019.1
20260901101607 70 0 0.0 0.0 0.00 0.00 0.00 96 1018.9
20260901101028 70 0 0.0 0.0 0.00 0.00 0.00 96 1019.1
20260901100528 70 0 0.0 0.0 0.00 0.00 0.00 96 1019.0
20260901100109 70 0 0.0 0.0 0.00 0.00 0.00 96 1018.9
20260901095530 70 0 0.0 0.0 0.00 0.00 0.00 96 1018.9
20260901095028 70 0 0.0 0.0 0.00 0.00 0.00 96 1018.9
20260901094601 71 0 0.0 0.0 0.00 0.00 0.00 96 1018.9
20260901094028 71 0 0.0 0.0 0.00 0.00 0.00 96 1018.8
20260901093529 71 0 0.0 0.0 0.00 0.00 0.00 96 1018.8
20260901093053 71 0 0.0 0.0 0.00 0.00 0.00 96 1018.7
20260901092525 71 0 0.0 0.0 0.00 0.00 0.00 96 1018.7
20260901092028 71 0 0.0 0.0 0.00 0.00 0.00 96 1018.7
20260901091547 71 0 0.0 0.0 0.00 0.00 0.00 96 1018.8
20260901091028 71 0 0.0 0.0 0.00 0.00 0.00 96 1018.8
20260901090530 71 0 0.0 0.0 0.00 0.00 0.00 96 1018.6
20260901090046 71 0 0.0 0.0 0.00 0.00 0.00 96 1018.7
20260901085528 71 0 0.0 0.0 0.00 0.00 0.00 97 1018.7
20260901085029 71 0 0.0 0.0 0.00 0.00 0.00 97 1018.7
20260901084608 71 0 0.0 0.0 0.00 0.00 0.00 97 1018.7
20260901084029 71 0 0.0 0.0 0.00 0.00 0.00 97 1018.7
20260901083528 71 0 0.0 0.0 0.00 0.00 0.00 96 1018.7
20260901083052 71 0 0.0 0.0 0.00 0.00 0.00 96 1018.7
20260901082530 71 0 0.0 1.0 0.00 0.00 0.00 96 1018.6
20260901082028 71 0 0.0 1.0 0.00 0.00 0.00 96 1018.7
20260901081601 71 0 0.0 1.0 0.00 0.00 0.00 96 1018.5
20260901081029 71 0 0.0 1.0 0.00 0.00 0.00 96 1018.6
20260901080529 71 0 0.0 1.0 0.00 0.00 0.00 96 1018.5
20260901080048 71 0 0.0 1.0 0.00 0.00 0.00 96 1018.4
20260901075529 71 0 0.0 1.0 0.00 0.00 0.00 96 1018.4
20260901075029 72 0 0.0 1.0 0.00 0.00 0.00 96 1018.5
20260901074558 71 0 0.0 1.0 0.00 0.00 0.00 96 1018.5
20260901074028 71 0 0.0 1.0 0.00 0.00 0.00 96 1018.3
20260901073529 72 0 0.0 1.0 0.00 0.00 0.00 95 1018.5
20260901073050 72 0 0.0 0.0 0.00 0.00 0.00 95 1018.4
20260901072528 72 0 0.0 0.0 0.00 0.00 0.00 96 1018.4
20260901072031 72 0 0.0 0.0 0.00 0.00 0.00 96 1018.3
20260901071601 72 0 0.0 0.0 0.00 0.00 0.00 96 1018.5
20260901071042 72 0 0.0 0.0 0.00 0.00 0.00 95 1018.4
20260901070531 72 0 0.0 1.0 0.00 0.00 0.00 95 1018.4
20260901070056 72 0 0.0 1.0 0.00 0.00 0.00 95 1018.4
20260901065531 72 0 0.0 0.0 0.00 0.00 0.00 95 1018.5
20260901065028 72 0 0.0 0.0 0.00 0.00 0.00 95 1018.5
20260901064551 72 0 0.0 0.0 0.00 0.00 0.00 95 1018.5
20260901064033 72 0 0.0 1.0 0.00 0.00 0.00 95 1018.6
20260901063530 72 0 0.0 1.0 0.00 0.00 0.00 95 1018.6
20260901063049 72 0 0.0 1.0 0.00 0.00 0.00 95 1018.7
20260901062528 72 0 0.0 1.0 0.00 0.00 0.00 95 1018.7
20260901062030 72 0 0.0 0.0 0.00 0.00 0.00 95 1018.8
20260901061610 72 0 0.0 1.0 0.00 0.00 0.00 94 1018.8
20260901061031 72 0 0.0 1.0 0.00 0.00 0.00 94 1018.8
20260901060530 72 0 0.0 1.0 0.00 0.00 0.00 94 1018.8
20260901060100 72 0 0.0 1.0 0.00 0.00 0.00 94 1018.9
20260901055531 72 0 0.0 0.0 0.00 0.00 0.00 94 1018.9
20260901055029 72 0 0.0 0.0 0.00 0.00 0.00 94 1018.8
20260901054554 73 0 0.0 0.0 0.00 0.00 0.00 94 1018.8
20260901054030 73 0 0.0 0.0 0.00 0.00 0.00 94 1018.8
20260901053530 73 0 0.0 0.0 0.00 0.00 0.00 93 1018.8
20260901053118 73 0 0.0 0.0 0.00 0.00 0.00 93 1018.8
20260901052529 73 0 0.0 0.0 0.00 0.00 0.00 93 1018.8
20260901052028 73 0 0.0 0.0 0.00 0.00 0.00 93 1018.8
20260901051546 73 0 0.0 0.0 0.00 0.00 0.00 93 1018.8
20260901051031 73 0 0.0 0.0 0.00 0.00 0.00 93 1018.8
20260901050528 73 0 0.0 0.0 0.00 0.00 0.00 93 1018.8
20260901050100 73 0 0.0 1.0 0.00 0.00 0.00 93 1018.8
20260901045531 73 0 0.0 1.0 0.00 0.00 0.00 93 1018.7
20260901045029 73 0 0.0 1.0 0.00 0.00 0.00 93 1018.7
20260901044557 73 0 0.0 0.0 0.00 0.00 0.00 92 1018.8
20260901044030 73 0 0.0 0.0 0.00 0.00 0.00 92 1018.8
20260901043530 73 0 0.0 0.0 0.00 0.00 0.00 92 1018.9
20260901043049 73 0 0.0 0.0 0.00 0.00 0.00 91 1018.7
20260901042529 74 0 0.0 0.0 0.00 0.00 0.00 92 1018.8
20260901042029 74 0 0.0 0.0 0.00 0.00 0.00 92 1018.8
20260901041600 74 0 0.0 1.0 0.00 0.00 0.00 91 1018.7
20260901041028 74 0 0.0 1.0 0.00 0.00 0.00 91 1018.7
20260901040549 74 0 0.0 1.0 0.00 0.00 0.00 92 1018.7
20260901040114 74 0 0.0 0.0 0.00 0.00 0.00 91 1018.9
20260901035526 74 0 0.0 0.0 0.00 0.00 0.00 90 1018.8
20260901035029 74 0 0.0 0.0 0.00 0.00 0.00 90 1018.7
20260901034554 74 0 0.0 0.0 0.00 0.00 0.00 91 1018.7
20260901034029 75 0 0.0 0.0 0.00 0.00 0.00 91 1018.6
20260901033529 75 0 0.0 0.0 0.00 0.00 0.00 91 1018.7
20260901033055 75 0 0.0 0.0 0.00 0.00 0.00 90 1018.6
20260901032530 75 0 0.0 0.0 0.00 0.00 0.00 90 1018.6
20260901032025 75 0 0.0 0.0 0.00 0.00 0.00 90 1018.7
20260901031606 75 0 0.0 0.0 0.00 0.00 0.00 89 1018.6
20260901031029 75 0 0.0 0.0 0.00 0.00 0.00 89 1018.7
20260901030530 75 0 0.0 0.0 0.00 0.00 0.00 90 1018.5